Погода в Сарагте

Погода в Сарагте : погода сейчас, прогноз погоды и архив. Всё, что Вы хотите узнать о погоде в Сарагте!

Поиск расширенной информации на нашем сайте:

Полезная информация: Получить визу в великобританию. Можно ли узнать получил визу в великобританию или нет.

Другие новости

Новости СМИ2

Главная страница сайта

Новости сайта

03.07.2017

Напоминаем, что на нашем специализированном сайте Метеоцентр.Азия вы можете получить высокодетализированные автоматические прогнозы погоды по пунктам России, СНГ и мира в авиационном формате (включающие направление и скорость ветра, видимость, явления погоды, количество и форму облачности, нижнюю и верхнюю границу облачности).

Рекомендуем: Клееный брус строительство под ключ дома из клееного бруса под ключ.

Погода в Сарагте - сегодня

Время (UTC), дата Ветер
(°,м/с) 
Видим.   Явления Облачность Т
(°С)
Тd
(°С)
f(%) Тe
(°С)
Pmin
(гПа)
dP
(гПа)
Po
(мм)
O2
(г/м3)
Тmin Tmax R s Состояние
почвы
00 24.05.18 тихо ()   20000 м    ясно 
+18 +5.5 44 +18  1014.7  -0.4  737  278           
03 24.05.18 тихо ()   20000 м    ясно 
+19.4 +5.9 41 +19  1015.2  0.6  737  276           
06 24.05.18 320 (СЗ) 20000 м    ясно 
+28.7 +5.9 24 +29  1014.1  737  268  +17.9         
09 24.05.18 340 (С) 20000 м    ясно 
+33 +5.6 18 +33  1012.3  -1.4  736  264           
12 24.05.18 340 (С) 20000 м    ясно 
+33.5 +6.2 18 +34  1010.4  -1.7  737  263           
15 24.05.18 340 (С) 20000 м    ясно 
+31.3 +7.4 23 +31  1010  -0.6  735  264    +34.7       
18 24.05.18 340 (С) 20000 м    ясно 
+25.3 +4.6 26 +25  1011.5  0.8  735  270    +34.7       
21 24.05.18 320 (СЗ) 20000 м    ясно 
+21.5 +4.3 32 +22  1012.7  0.8  736  274           
00 25.05.18 340 (С) 20000 м    ясно 
+19.2 +3.2 35 +21  1012.6  -0.4  735  276           
03 25.05.18 320 (СЗ) 20000 м    ясно 
+22.4 -0.7 21 +22  1011.3  -0.9  735  274  +19.1        сухая 
06 25.05.18 290 (З) 20000 м    ясно 
+30.9 +3.2 17 +31  1010.3  -0.1  735  265  +19.1         
09 25.05.18 290 (З) 20000 м    ясно 
+33 -2.2 10 +33  1009.4  -0.7  734  264           
12 25.05.18 320 (СЗ) 20000 м    ясно 
+33.8 -1.7 10 +34  1007.5  -1.8  733  263           
15 25.05.18 320 (СЗ) 20000 м    ясно 
+30 +7.1 24 +30  1007.9  0.1  733  265    +35.1       
18 25.05.18 тихо ()   20000 м    ясно 
+23.8 +8 36 +24  1008.7  0.2  733  270    +35.1       
21 25.05.18 250 (З) 20000 м    ясно 
+21 +5.8 37 +21  1008.8  -0.2  733  273           
00 26.05.18 200 (Ю) 20000 м    ясно 
+19.8 +5.6 39 +21  1008  -0.9  732  274           
03 26.05.18 180 (Ю) 20000 м    ясно 
+21.5 +6.5 38 +22  1008.2  0.4  733  273           
06 26.05.18 180 (Ю) 20000 м    ясно 
+33.4 +2.9 15 +33  1006.3  -0.8  732  262  +19.7         
09 26.05.18 тихо ()   20000 м    ясно 
+37.9 +1.5 10 +38  1004.3  -1.4  731  258           
12 26.05.18 140 (ЮВ) 20000 м    ясно 
+38.6 +2.7 11 +39  1002.4  -1.3  730  257           
15 26.05.18 050 (СВ) 20000 м    ясно 
+36.2 +6.7 16 +36  1001.9  -1.2  729  258    +39.9       
18 26.05.18 320 (СЗ) 20000 м    ясно 
+29.6 +10.3 30 +32  1005.5  2.9  731  264    +39.9       
21 26.05.18 тихо ()   20000 м    ясно 
+27 +9 32 +27  1006.3  0.5  732  267           
00 27.05.18 320 (СЗ) 20000 м    ясно 
+23.2 +8.9 40 +23  1007.9  1.1  732  270           
Время (UTC), дата Ветер
(°,м/с) 
Видим.   Явления Облачность Т
(°С)
Тd
(°С)
f(%) Тe
(°С)
Pmin
(гПа)
dP
(гПа)
Po
(мм)
O2
(г/м3)
Тmin Tmax R s Состояние
почвы

Для получения пояснительной информации подведите курсор к названию столбца.

ПОГОДА в Сарагте - архив

Всё, что Вы хотите узнать о погоде в Сарагте - удобно и подробно!

Выберите нужную дату (начиная с 1 января 2015* года) и нажмите кнопку "Найти".
Будут отображены архивные сводки погоды по пункту Сарагт, начиная с указанной даты.


Отображать данные в формате CSV (для использования в таблицах Excel)


Внимание! Наш архив погоды предназначен исключительно для личного некоммерческого использования в познавательных целях. Если Вам необходимы официальные справки о состоянии погоды (для производственных, юридических, коммерческих и т.п. целей), обращайтесь в органы Росгидромета.

*Примечание: данная дата относится к архиву по метеостанциям СССР (Россия, СНГ, Балтия).
Архив по метеостанциям Зарубежной Европы и Азии (кроме Китая) хранится 10 дней, по другим регионам земного шара (Китай, Африка, Америка, Австралия, Океания) - 1 день.

Сарагт - район местоположения метеостанции


Название, широта, долгота, высота метеостанции:
Сарагт 36.5°ш. 61.2°д. 275 м над ур. моря [Туркменистан]

Дополнительная информация

В oтличие oт бoльшинства пoгoдных сайтoв мы публикуем пoдрoбную метеoинфoрмацию в детальнoм прoфессиoнальнoм фoрмате.

Характеристики температуры и влажнoсти вoздуха измеряются на высoте 2 м в тени вдали oт зданий и деревьев.
Скoрoсть ветра измеряется на высoте 10 м (на урoвне рoста челoвека скoрoсть ветра ниже в 1.5-2 раза). Если метеoстанция нахoдится в гoрoде или в лесу, тo скoрoсть ветра занижена на 2-4 м/с пo сравнению с oткрытым местoм. Скoрoсть ветра над акватoриями крупных рек и oзёр, а также на вершинах хoлмoв на 2-5 м/с выше, чем в oбычных услoвиях.
Атмoсфернoе давление в разных тoчках местнoсти мoжет значительнo oтличаться oт давления на метеoстанции, в зависимoсти oт услoвий рельефа (при пoдъёме на 10 м давление пoнижается примернo на 1 мм рт.ст.).